Weather History for PAGL - December, 2013

Change the Weather History Date:

Wednesday, December 11, 2013

  Actual Average Record
Temperature  
Mean Temperature 14 °F -  
Max Temperature 19 °F - - ()
Min Temperature 10 °F - - ()
Degree Days  
Heating Degree Days 50    
Moisture  
Dew Point 1 °F    
Average Humidity 54    
Maximum Humidity 73    
Minimum Humidity 45    
Precipitation  
Precipitation 0.03 in - - ()
Sea Level Pressure  
Sea Level Pressure 30.39 in    
Wind  
Wind Speed 20 mph (NNE)    
Max Wind Speed 33 mph    
Max Gust Speed 43 mph    
Visibility 10 miles    
Events      
T = Trace of Precipitation, MM = Missing Value Source: NWS Daily Summary

Daily Weather History Graph

Daily Weather History Graph

Search for Another Location

Airport or City:

Trip Planner

Search our weather history database for the weather conditions in past years. The results will help you decide how hot, cold, wet, or windy it might be!

Date:

Astronomy

Dec. 11, 2013 Rise Set
Actual Time 11:41 AM AKST 3:49 PM AKST
Civil Twilight 10:21 AM AKST 5:09 PM AKST
Nautical Twilight 9:12 AM AKST 6:19 PM AKST
Astronomical Twilight 8:11 AM AKST 7:19 PM AKST
Moon 2:20 PM AKST (12/11) 4:16 AM AKST (12/11)
Length of Visible Light 6h 47m
Length of Day
4h 07m
Waxing Gibbous, 73% of the Moon is Illuminated
Dec 11
Waxing Gibbous
Dec 17
Full
Dec 25
Last Quarter
Jan 1
New
Jan 7
First Quarter

Hourly Weather History & Observations

Time (AKST) Temp. Windchill Dew Point Humidity Pressure Visibility Wind Dir Wind Speed Gust Speed Precip Events Conditions
12:16 AM 19.4 °F 2.5 °F 3.2 °F 49% 30.40 in 10.0 mi ENE 23.0 mph 35.7 mph N/A   Clear
12:36 AM 19.4 °F -0.0 °F 5.0 °F 54% 30.39 in 10.0 mi NE 32.2 mph 42.6 mph N/A   Clear
12:56 AM 19.4 °F 2.1 °F 3.2 °F 49% 30.39 in 10.0 mi NE 24.2 mph 41.4 mph N/A   Clear
1:16 AM 17.6 °F -1.0 °F 5.0 °F 58% 30.40 in 10.0 mi NE 26.5 mph 33.4 mph N/A   Clear
1:36 AM 17.6 °F -1.3 °F 3.2 °F 53% 30.39 in 10.0 mi ENE 27.6 mph 36.8 mph N/A   Clear
1:56 AM 17.6 °F 0.5 °F 3.2 °F 53% 30.40 in 10.0 mi NE 21.9 mph 32.2 mph N/A   Clear
2:16 AM 17.6 °F -0.3 °F 3.2 °F 53% 30.40 in 10.0 mi ENE 24.2 mph 34.5 mph 0.01 in   Clear
2:36 AM 17.6 °F -1.0 °F 3.2 °F 53% 30.39 in 10.0 mi NE 26.5 mph 31.1 mph 0.01 in   Clear
2:56 AM 17.6 °F -0.6 °F 3.2 °F 53% 30.40 in 10.0 mi NE 25.3 mph 33.4 mph 0.01 in   Clear
3:16 AM 17.6 °F 1.7 °F 3.2 °F 53% 30.41 in 10.0 mi NE 18.4 mph 24.2 mph N/A   Clear
3:36 AM 17.6 °F 9.3 °F 3.2 °F 53% 30.42 in 10.0 mi NNE 5.8 mph 21.9 mph N/A   Clear
3:56 AM 17.6 °F 8.2 °F 1.4 °F 49% 30.41 in 10.0 mi NNE 6.9 mph - N/A   Clear
4:16 AM 17.6 °F 0.9 °F 3.2 °F 53% 30.39 in 10.0 mi NE 20.7 mph 28.8 mph N/A   Clear
4:36 AM 17.6 °F -1.3 °F 1.4 °F 49% 30.38 in 10.0 mi ENE 27.6 mph 39.1 mph N/A   Clear
4:56 AM 17.6 °F -1.9 °F 1.4 °F 49% 30.36 in 10.0 mi ENE 29.9 mph 40.3 mph N/A   Clear
5:16 AM 17.6 °F -2.8 °F 1.4 °F 49% 30.37 in 10.0 mi ENE 33.4 mph 41.4 mph N/A   Clear
5:36 AM 15.8 °F -4.7 °F 1.4 °F 53% 30.38 in 10.0 mi ENE 31.1 mph 36.8 mph N/A   Clear
5:56 AM 15.8 °F -3.7 °F 1.4 °F 53% 30.38 in 10.0 mi ENE 27.6 mph 38.0 mph N/A   Clear
6:16 AM 15.8 °F -2.7 °F 1.4 °F 53% 30.39 in 10.0 mi ENE 24.2 mph 35.7 mph N/A   Clear
6:36 AM 15.8 °F -2.3 °F 1.4 °F 53% 30.39 in 10.0 mi ENE 23.0 mph 32.2 mph N/A   Clear
6:56 AM 15.8 °F -3.1 °F -0.4 °F 49% 30.38 in 10.0 mi NE 25.3 mph 38.0 mph N/A   Clear
7:16 AM 15.8 °F -4.1 °F -0.4 °F 49% 30.39 in 10.0 mi ENE 28.8 mph 34.5 mph N/A   Clear
7:36 AM 17.6 °F -1.3 °F 1.4 °F 49% 30.39 in 10.0 mi ENE 27.6 mph 36.8 mph N/A   Clear
7:56 AM 15.8 °F -3.4 °F -0.4 °F 49% 30.40 in 10.0 mi ENE 26.5 mph 32.2 mph N/A   Clear
8:16 AM 15.8 °F -3.1 °F -0.4 °F 49% 30.39 in 10.0 mi ENE 25.3 mph 33.4 mph N/A   Clear
8:36 AM 15.8 °F -5.0 °F -0.4 °F 49% 30.37 in 10.0 mi NE 32.2 mph 40.3 mph N/A   Clear
8:56 AM 15.8 °F -3.7 °F -0.4 °F 49% 30.38 in 10.0 mi NE 27.6 mph 38.0 mph N/A   Clear
9:16 AM 15.8 °F -2.3 °F -0.4 °F 49% 30.39 in 10.0 mi NE 23.0 mph 32.2 mph N/A   Clear
9:36 AM 14.0 °F -4.3 °F -0.4 °F 53% 30.40 in 10.0 mi NNE 21.9 mph 28.8 mph N/A   Clear
9:56 AM 14.0 °F -2.5 °F -0.4 °F 53% 30.40 in 10.0 mi NE 17.3 mph 23.0 mph N/A   Clear
10:16 AM 14.0 °F -4.7 °F -0.4 °F 53% 30.40 in 10.0 mi NE 23.0 mph 28.8 mph N/A   Clear
10:36 AM 15.8 °F -2.3 °F 1.4 °F 53% 30.40 in 10.0 mi NE 23.0 mph 28.8 mph N/A   Clear
10:56 AM 15.8 °F -2.3 °F -0.4 °F 49% 30.40 in 10.0 mi NE 23.0 mph 28.8 mph N/A   Clear
11:16 AM 15.8 °F -0.2 °F -0.4 °F 49% 30.40 in 10.0 mi NNE 17.3 mph 27.6 mph N/A   Clear
11:36 AM 15.8 °F 0.9 °F -2.2 °F 45% 30.41 in 10.0 mi North 15.0 mph 28.8 mph N/A   Clear
11:56 AM 12.2 °F -0.2 °F 3.2 °F 67% 30.41 in 10.0 mi NNW 9.2 mph - N/A   Clear
12:16 PM 14.0 °F 0.5 °F 1.4 °F 57% 30.40 in 10.0 mi NW 11.5 mph - N/A   Clear
12:36 PM 12.2 °F 2.9 °F 3.2 °F 67% 30.41 in 10.0 mi NNW 5.8 mph - N/A   Clear
12:56 PM 14.0 °F 1.2 °F 3.2 °F 62% 30.41 in 10.0 mi NW 10.4 mph - N/A   Clear
1:16 PM 14.0 °F 0.5 °F 3.2 °F 62% 30.41 in 10.0 mi North 11.5 mph - 0.01 in   Clear
1:36 PM 14.0 °F 2.9 °F 1.4 °F 57% 30.41 in 10.0 mi North 8.1 mph - 0.01 in   Clear
1:56 PM 14.0 °F 6.5 °F 3.2 °F 62% 30.40 in 10.0 mi North 4.6 mph - 0.01 in   Clear
2:16 PM 14.0 °F 2.0 °F -0.4 °F 53% 30.40 in 10.0 mi NW 9.2 mph - N/A   Clear
2:36 PM 12.2 °F 1.7 °F 5.0 °F 73% 30.40 in 10.0 mi NW 6.9 mph - N/A   Clear
2:56 PM 12.2 °F 2.9 °F 3.2 °F 67% 30.40 in 10.0 mi NNW 5.8 mph - N/A   Clear
3:16 PM 15.8 °F 3.4 °F 3.2 °F 58% 30.40 in 10.0 mi NNE 10.4 mph - N/A   Clear
3:36 PM 15.8 °F 0.9 °F -0.4 °F 49% 30.39 in 10.0 mi NNE 15.0 mph 23.0 mph N/A   Clear
3:56 PM 15.8 °F 2.1 °F -0.4 °F 49% 30.38 in 10.0 mi NNE 12.7 mph 23.0 mph N/A   Clear
4:16 PM 15.8 °F 7.2 °F -0.4 °F 49% 30.39 in 10.0 mi North 5.8 mph - 0.01 in   Clear
4:36 PM 15.8 °F 2.1 °F -0.4 °F 49% 30.39 in 10.0 mi NNE 12.7 mph 16.1 mph 0.01 in   Clear
4:56 PM 15.8 °F 2.1 °F -0.4 °F 49% 30.38 in 10.0 mi NNE 12.7 mph 18.4 mph 0.01 in   Clear
5:16 PM 15.8 °F 0.3 °F -0.4 °F 49% 30.38 in 10.0 mi NNE 16.1 mph 26.5 mph N/A   Clear
5:36 PM 15.8 °F -1.1 °F -2.2 °F 45% 30.38 in 10.0 mi NNE 19.6 mph 26.5 mph N/A   Clear
5:56 PM 15.8 °F 0.9 °F -0.4 °F 49% 30.39 in 10.0 mi NNE 15.0 mph 23.0 mph N/A   Clear
6:16 PM 15.8 °F 0.9 °F -2.2 °F 45% 30.39 in 10.0 mi NNE 15.0 mph 20.7 mph N/A   Clear
6:36 PM 15.8 °F -1.5 °F -2.2 °F 45% 30.39 in 10.0 mi NNE 20.7 mph 26.5 mph N/A   Clear
6:56 PM 15.8 °F -0.6 °F -2.2 °F 45% 30.39 in 10.0 mi NNE 18.4 mph 27.6 mph N/A   Clear
7:16 PM 15.8 °F 2.1 °F -0.4 °F 49% 30.39 in 10.0 mi North 12.7 mph 21.9 mph N/A   Clear
7:36 PM 14.0 °F 1.2 °F -2.2 °F 49% 30.40 in 10.0 mi North 10.4 mph - N/A   Clear
7:56 PM 12.2 °F -1.0 °F -2.2 °F 53% 30.40 in 10.0 mi North 10.4 mph - N/A   Clear
8:16 PM 12.2 °F 1.7 °F -0.4 °F 57% 30.40 in 10.0 mi NNW 6.9 mph - N/A   Clear
8:36 PM 12.2 °F 0.7 °F -0.4 °F 57% 30.40 in 10.0 mi North 8.1 mph - N/A   Clear
8:56 PM 12.2 °F -2.5 °F -2.2 °F 53% 30.40 in 10.0 mi North 12.7 mph - N/A   Clear
9:16 PM 10.4 °F -0.4 °F -2.2 °F 57% 30.41 in 10.0 mi NNW 6.9 mph - N/A   Clear
9:36 PM 10.4 °F -4.1 °F 1.4 °F 67% 30.40 in 10.0 mi NNW 11.5 mph - N/A   Clear
9:56 PM 10.4 °F -4.1 °F 1.4 °F 67% 30.40 in 10.0 mi NW 11.5 mph - N/A   Clear
10:16 PM 10.4 °F -2.4 °F 1.4 °F 67% 30.40 in 10.0 mi NNW 9.2 mph - N/A   Clear
10:36 PM 10.4 °F -1.5 °F 1.4 °F 67% 30.40 in 10.0 mi North 8.1 mph - N/A   Clear
10:56 PM 10.4 °F -2.4 °F 1.4 °F 67% 30.39 in 10.0 mi North 9.2 mph - N/A   Clear
11:16 PM 10.4 °F -2.4 °F -0.4 °F 62% 30.39 in 10.0 mi North 9.2 mph - N/A   Clear
11:36 PM 10.4 °F -3.3 °F 1.4 °F 67% 30.39 in 10.0 mi North 10.4 mph - N/A   Clear
11:56 PM 10.4 °F -4.8 °F -0.4 °F 62% 30.39 in 10.0 mi North 12.7 mph - N/A   Clear